Location: Gökben Yaylas?
(36.8988°N, 29.6291°E)
Time: 20:00:18
(UTC+00:00)

Nimbus 7 Rocket - Pass Details

Date: 15 May 2026
Orbit: 921 x 963 km, 99.4° (Epoch: 8 June)

Event Time Altitude Azimuth Distance (km) Brightness Sun altitude
Rises 23:28:59 0° 14° (NNE) 3,640 8.6 -30.1°
Reaches altitude 10° 23:31:27 10° 14° (NNE) 2,686 7.7 -29.9°
Maximum altitude 23:37:29 88° 105° (ESE) 951 4.3 -29.3°
Enters shadow 23:37:29 88° 106° (ESE) 951 4.3 -29.3°
